This is the latest recevied weather packets stored in our database for station/object KY0TEQ-13. If no packets are shown the sender has not sent any weather packets the latest 10 day(s).
| Time | Temp. | Humidity | Pressure | Rain* | Wind** | Luminosity | Snow |
|---|---|---|---|---|---|---|---|
| 1788356867 | 13.89° C | 55% | 1311.1 hPa | 0 mm | - | 62 W/m² | - |
| 1788356564 | 13.33° C | 58% | 1311 hPa | 0 mm | - | 54 W/m² | - |
| 1788356259 | 12.22° C | 63% | 1311 hPa | 0 mm | - | 49 W/m² | - |
| 1788355958 | 11.67° C | 66% | 1311.1 hPa | 0 mm | - | 43 W/m² | - |
| 1788355653 | 10.56° C | 69% | 1311 hPa | 0 mm | - | 36 W/m² | - |
| 1788355348 | 10° C | 70% | 1311 hPa | 0 mm | - | 30 W/m² | - |
| 1788355043 | 10° C | 70% | 1310.7 hPa | 0 mm | - | 25 W/m² | - |
| 1788354740 | 10° C | 69% | 1310.8 hPa | 0 mm | - | 21 W/m² | - |
| 1788354434 | 10.56° C | 67% | 1310.7 hPa | 0 mm | - | 17 W/m² | - |
| 1788354131 | 10.56° C | 65% | 1310.7 hPa | 0 mm | - | 14 W/m² | - |
| 1788353831 | 10.56° C | 65% | 1310.7 hPa | 0 mm | - | 11 W/m² | - |
| 1788353527 | 10° C | 67% | 1310.7 hPa | 0 mm | - | 8 W/m² | - |
| 1788353229 | 10.56° C | 66% | 1310.5 hPa | 0 mm | - | 5 W/m² | - |
| 1788352923 | 10.56° C | 64% | 1310.5 hPa | 0 mm | - | 3 W/m² | - |
| 1788352619 | 12.78° C | 58% | 1310.5 hPa | 0 mm | - | 2 W/m² | - |
| 1788352314 | 12.78° C | 55% | 1310.2 hPa | 0 mm | - | 1 W/m² | - |
| 1788352008 | 13.33° C | 55% | 1310 hPa | 0 mm | - | 0 W/m² | - |
| 1788351704 | 12.22° C | 58% | 1310.1 hPa | 0 mm | - | 0 W/m² | - |
| 1788351404 | 12.22° C | 57% | 1310.4 hPa | 0 mm | - | 0 W/m² | - |
| 1788351099 | 11.67° C | 59% | 1310.1 hPa | 0 mm | - | 0 W/m² | - |
| 1788350795 | 11.67° C | 59% | 1310.1 hPa | 0 mm | - | 0 W/m² | - |
| 1788350492 | 12.22° C | 58% | 1310.1 hPa | 0 mm | - | 0 W/m² | - |
| 1788350186 | 12.22° C | 57% | 1310.5 hPa | 0 mm | - | 0 W/m² | - |
| 1788349882 | 12.22° C | 56% | 1310.2 hPa | 0 mm | - | 0 W/m² | - |
| 1788349578 | 12.22° C | 57% | 1310.4 hPa | 0 mm | - | 0 W/m² | - |
* Rain latest hour (hover to see other rain measurements)
** Current wind speed in m/s (hover to see current wind gust speed)